Regional Weather Roundup
Issued by NWS

Home | Current Version | Previous Version | Graphics & Text | Print | Product List | Glossary On
Versions: 1 2 3 4 5 6 7 8 9 10 11 12 13 14 15 16 17 18 19 20 21 22 23 24 25 26 27 28 29 30 31 32 33 34 35 36 37 38 39 40 41 42 43 44 45 46 47 48 49 50
000
ASUS43 KLOT 261503
RWRIL

ILLINOIS REGIONAL WEATHER ROUNDUP
NATIONAL WEATHER SERVICE CHICAGO/ROMEOVILLE IL
1000 AM CDT TUE JUL 26 2016

NOTE: "FAIR" INDICATES FEW OR NO CLOUDS BELOW 12,000 FEET WITH NO
SIGNIFICANT WEATHER AND/OR OBSTRUCTIONS TO VISIBILITY.

* THESE STATIONS ARE NOT UNDER NWS QUALITY CONTROL. THEY ALSO MAY NOT
  REPORT WEATHER SUCH AS PRECIPITATION OR FOG.

ILZ001-002-007-009-015-016-024-261600-
NORTHWEST ILLINOIS

CITY           SKY/WX    TMP DP  RH WIND       PRES   REMARKS
MOLINE         SUNNY     81  66  60 E5        30.07R HX  83
STERLING*      SUNNY     79  69  71 E3        30.07F HX  81
SAVANNA*       SUNNY     79  66  64 SE3       30.07S HX  81
$$

ILZ003-004-008-010-011-017-018-261600-
NORTH CENTRAL ILLINOIS

CITY           SKY/WX    TMP DP  RH WIND       PRES   REMARKS
ROCKFORD       SUNNY     81  61  50 E5        30.08S HX  82
FREEPORT*      SUNNY     77  67  70 E3        30.10S
ROCHELLE*      SUNNY     79  67  65 E6        30.08S HX  81
DE KALB*       SUNNY     80  68  65 E6        30.09R HX  83
$$

ILZ005-006-012>014-019>023-261600-
NORTHEAST ILLINOIS

CITY           SKY/WX    TMP DP  RH WIND       PRES   REMARKS
CHICAGO-OHARE  MOSUNNY   82  62  50 E6        30.06S HX  83
CHICAGO-MIDWAY MOSUNNY   83  62  49 VRB6      30.06S HX  84
AURORA         SUNNY     83  67  58 E6        30.07S HX  85
LANSING*       PTSUNNY   81  64  56 SE3       30.07F HX  82
WAUKEGAN       SUNNY     82  63  52 CALM      30.06S HX  83
DUPAGE AIRPORT SUNNY     81  63  54 VRB3      30.07S HX  82
KANKAKEE*      SUNNY     80  68  65 SE6       30.08S HX  83
WHEELING       SUNNY     82  62  50 CALM      30.07S HX  83
MORRIS*        MOSUNNY   80  69  71 SE5       30.06S HX  82
NORTHERLY ISL    N/A     78  63  59 NE3         N/A  HX  80
$$

LMZ740>746-261600-
SOUTHERN LAKE MICHIGAN

STATION/POSITION SKY/WX   TEMP    WIND        PRES    VSBY  WAVE
                          AIR SEA DIR/SP/G                  HT/PER
                          (F)     (DEG/KT/KT) (MB)    (MI)  (FT/S)
SOUTHERN BUOY              73 73  320/  4/  6 1017.3          0
WILMETTE HARBOR            70 68  300/  2/  2   N/A           0
HARRISON CRIB              75      20/  3/  4   N/A
BURNHAM HARBOR             77      60/  2/  5   N/A
CALUMET HARBOR             76      50/  3/  4 1017.6R
BURNS HARBOR               77      40/  3/  5 1018.6S
MICHIGAN CITY              75      20/  5/  5   N/A
MICHIGAN CITY 6N           75 75   20/  2/  2   N/A           0
ST. JOSEPH                 76 76     CALM     1017.9S         0
$$

ILZ025>027-034>036-040-047-049-050-058-095>099-261600-
WEST-CENTRAL ILLINOIS

CITY           SKY/WX    TMP DP  RH WIND       PRES   REMARKS
QUINCY         SUNNY     80  69  69 VRB6      30.07S HX  83
GALESBURG*     SUNNY     80  66  61 NE3       30.08R HX  82
MACOMB*        MOSUNNY   78  68  72 E3        30.09S HX  80
JACKSONVILLE*  SUNNY     80  71  74 E6        30.06F HX  84
PITTSFIELD*    SUNNY     80  70  72 E6        30.08S HX  83
$$

ILZ028>032-037-038-041>044-048-051>054-059>061-261600-
CENTRAL ILLINOIS

CITY           SKY/WX    TMP DP  RH WIND       PRES   REMARKS
PONTIAC        SUNNY     81  74  79 CALM      30.07S HX  85
BLOOMINGTON    SUNNY     80  70  71 SE7       30.08S HX  83
DECATUR        SUNNY     81  66  60 E8        30.06S HX  83
PEORIA         SUNNY     82  68  62 E7        30.06S HX  85
LACON*         SUNNY     80  68  66 NE3       30.05F HX  82
LINCOLN*       SUNNY     82  72  71 E3        30.06S HX  87
SPRINGFIELD    SUNNY     83  70  64 NE5       30.06S HX  87
TAYLORVILLE    SUNNY     80  70  71 MISG      30.05S HX  84
$$

ILZ033-039-045-046-055>057-062-063-261600-
EAST-CENTRAL ILLINOIS

CITY           SKY/WX    TMP DP  RH WIND       PRES   REMARKS
CHAMPAIGN      PTSUNNY   79  68  69 E8        30.07S HX  81
RANTOUL*       PTSUNNY   81  66  61 E6        30.07  HX  83
MATTOON        CLOUDY    71  67  87 E7        30.06R
PARIS*         LGT RAIN  66  65  96 CALM      30.07F
$$

ILZ079-100>102-261600-
SOUTHWEST ILLINOIS

CITY           SKY/WX    TMP DP  RH WIND       PRES   REMARKS
ALTON          PTSUNNY   81  73  78 NE8       30.04F HX  85
BELLEVILLE     CLOUDY    81  80  98 NE2       30.02S HX  90
CAHOKIA*       CLOUDY    82  74  76 CALM      30.03S HX  88
SPARTA*        CLOUDY    79  76  89 CALM      30.04S HX  84
$$

ILZ064>066-069>071-074>076-080>082-084>086-088>090-092>094-261600-
SOUTH-CENTRAL ILLINOIS

CITY           SKY/WX    TMP DP  RH WIND       PRES   REMARKS
CARBONDALE     CLOUDY    84  75  74 N3        30.02F HX  92
CAIRO*         MOSUNNY   82  78  88 CALM      30.02S HX  90
EFFINGHAM*     CLOUDY    75  74  99 NE5       30.06S
MT. VERNON     PTSUNNY   82  73  74 CALM      30.02F HX  88
CENTRALIA*     CLOUDY    80  75  84 CALM      30.03S HX  86
SALEM*         CLOUDY    78  73  84 CALM      30.04F HX  81
METROPOLIS*    SUNNY     84  75  75 CALM      30.02F HX  92
$$

ILZ067-068-072-073-078-083-087-091-261600-
SOUTHEAST ILLINOIS

CITY           SKY/WX    TMP DP  RH WIND       PRES   REMARKS
LAWRENCEVILLE  CLOUDY    76  71  85 E6        30.03F
FLORA*         PTSUNNY   79  73  83 CALM      30.03F HX  82
FAIRFIELD*     CLOUDY    79  75  87 NE3       30.03S HX  83
HARRISBURG*    CLOUDY    80  78  94 CALM      30.03F FOG     HX  85
ROBINSON*      CLOUDY    71  70  98 CALM      30.05R
CARMI*         CLOUDY    77  76  95 NW3       30.03S FOG
$$

ABBREVIATIONS USED IN REMARKS
   TC - TEMPERATURE IN CELSIUS
  WCI - WIND CHILL INDEX
   HX - HEAT INDEX
  VSB - VISIBILITY
$$





USA.gov is the U.S. government's official web portal to all federal, state and local government web resources and services.